KC7FQC Weather Reports


Display with metric or nautical units.
time (UTC)temp
F
wind
direction
speed
MPH
gust
MPH
rain 1hr
in
rain 24hr
in
rain mn
in
humidity
%
barometer
mb
20190121072948 55 238 2.0 4.0 0.00 0.00 0.00 56 1014.1
20190121065948 56 238 0.0 4.0 0.00 0.00 0.00 53 1013.7
20190121062947 56 238 1.0 5.0 0.00 0.00 0.00 52 1013.0
20190121060003 55 240 3.0 4.0 0.00 0.00 0.00 54 1013.5
20190121053003 56 240 0.0 2.0 0.00 0.00 0.00 54 1013.5
20190121050004 56 240 0.0 3.0 0.00 0.00 0.00 53 1013.6
20190121042947 57 240 0.0 2.0 0.00 0.00 0.00 52 1013.8
20190121035947 59 240 2.0 2.0 0.00 0.00 0.00 48 1014.1
20190121033003 61 240 0.0 0.0 0.00 0.00 0.00 43 1013.4
20190121030003 61 240 0.0 7.0 0.00 0.00 0.00 41 1013.6
20190121022948 61 240 0.0 4.0 0.00 0.00 0.00 42 1013.5
20190121020003 63 240 0.0 0.0 0.00 0.00 0.00 42 1013.1
20190121013003 65 240 0.0 1.0 0.00 0.00 0.00 38 1012.8
20190121005948 68 240 0.0 1.0 0.00 0.00 0.00 33 1012.8
20190121002947 71 240 0.0 0.0 0.00 0.00 0.00 30 1013.3
20190121000003 73 233 0.0 0.0 0.00 0.00 0.00 25 1013.7
20190120232947 75 240 0.0 4.0 0.00 0.00 0.00 24 1014.2
20190120225947 76 239 0.0 4.0 0.00 0.00 0.00 23 1014.6
20190120222947 76 240 0.0 6.0 0.00 0.00 0.00 23 1015.1
20190120215947 76 238 4.0 7.0 0.00 0.00 0.00 24 1015.5
20190120213003 75 234 3.0 6.0 0.00 0.00 0.00 25 1016.0
20190120210002 74 230 4.0 7.0 0.00 0.00 0.00 26 1016.3
20190120202947 73 232 2.0 7.0 0.00 0.00 0.00 27 1016.8
20190120195947 73 278 2.0 6.0 0.00 0.00 0.00 27 1017.4
20190120192947 74 288 5.0 6.0 0.00 0.00 0.00 28 1018.6
20190120190002 73 330 1.0 5.0 0.00 0.00 0.00 29 1019.2
20190120182947 70 331 2.0 6.0 0.00 0.00 0.00 32 1020.0
20190120175947 67 333 0.0 3.0 0.00 0.00 0.00 35 1019.7
20190120173003 63 333 1.0 2.0 0.00 0.00 0.00 40 1019.9
20190120170003 59 335 2.0 4.0 0.00 0.00 0.00 47 1019.9
20190120162947 55 336 4.0 5.0 0.00 0.00 0.00 53 1020.1
20190120155947 50 338 0.0 1.0 0.00 0.00 0.00 64 1019.6
20190120152947 47 345 0.0 0.0 0.00 0.00 0.00 70 1019.6
20190120145947 45 345 0.0 0.0 0.00 0.00 0.00 70 1019.2
20190120142947 45 323 0.0 1.0 0.00 0.00 0.00 70 1019.4
20190120135947 45 323 0.0 1.0 0.00 0.00 0.00 69 1019.3
20190120132947 46 323 0.0 1.0 0.00 0.00 0.00 68 1019.7
20190120125948 45 323 0.0 1.0 0.00 0.00 0.00 69 1019.7
20190120122947 46 323 0.0 1.0 0.00 0.00 0.00 69 1020.3
20190120115946 46 323 0.0 1.0 0.00 0.00 0.00 67 1020.4
20190120112946 47 323 0.0 0.0 0.00 0.00 0.00 65 1020.9
20190120105947 48 323 0.0 0.0 0.00 0.00 0.00 64 1021.2
20190120102947 49 323 0.0 2.0 0.00 0.00 0.00 62 1021.6
20190120100003 50 323 0.0 4.0 0.00 0.00 0.00 61 1021.6
20190120092946 49 323 1.0 2.0 0.00 0.00 0.00 63 1021.4
20190120090002 49 323 0.0 2.0 0.00 0.00 0.00 65 1021.7
20190120082946 50 323 0.0 2.0 0.00 0.00 0.00 64 1022.1
20190120080002 50 323 0.0 0.0 0.00 0.00 0.00 64 1022.5